Regional Weather Roundup
Issued by NWS

Home | Current Version | Previous Version | Text Only | Print | Product List | Glossary On
Versions: 1 2 3 4 5 6 7 8 9 10 11 12 13 14 15 16 17 18 19 20 21 22 23 24 25 26 27 28 29 30 31 32 33 34 35 36 37 38 39 40 41 42 43 44 45 46 47 48 49 50
000
ASUS42 KTBW 300510
RWRFL
FLORIDA REGIONAL WEATHER ROUNDUP
NATIONAL WEATHER SERVICE TAMPA BAY RUSKIN FL
1200 AM EST FRI JAN 30 2015

NOTE: "FAIR" INDICATES FEW OR NO CLOUDS BELOW 12,000 FEET WITH NO
SIGNIFICANT WEATHER AND/OR OBSTRUCTIONS TO VISIBILITY.


FLZ001>010-012>015-112-114-115-300600-
PANHANDLE FLORIDA

CITY           SKY/WX    TMP DP  RH WIND       PRES   REMARKS
PENSACOLA      PTCLDY    62  57  83 SW8       30.20S
PENSACOLA NAS  MOCLDY    62  59  90 SW8       30.20S
MILTON NAS     CLEAR     55  54  96 SW6       30.19F
CRESTVIEW      PTCLDY    51  50  96 S5        30.20F FOG
DUKE FIELD     MOCLDY    57  55  92 S7        30.19F
VALPARAISO     MOCLDY    62  58  86 SW3       30.20S
MARY ESTHER    PTCLDY    63  57  80 SW7       30.19S
TRI COUNTY     FAIR      50  48  93 S3        30.19F
PANAMA CITY    FAIR      50  47  89 CALM      30.19F
TYNDALL AFB    CLEAR     59  56  91 SW10      30.21F
APALACHICOLA   CLEAR     61  54  77 SW7       30.21F

STATION/POSITION SKY/WX   TEMP    WIND        PRES    WAVE   SWELL
                          AIR SEA DIR/SP/G            HT/PER HT/PER
                          (F)     (DEG/KT/KT) (MB)    (FT/S) (FT/S)
30.1N   87.6W              65 62  220/ 10/ 12 1022.3R   2/ 5
29.2N   88.2W              69 68  260/ 14/ 16 1024.1R   2/ 5
28.7N   86.0W              66 69  230/ 12/ 14 1023.9F   2/ 5   2/ 5
PANAMA CITY BEAC           63 60  230/ 11/ 12 1022.4F
CAPE SAN BLAS    NOT AVBL
TOWER C                    62     220/ 14/ 15 1023.0F
28.5N   84.5W              65 67  240/  8/ 12 1024.0F   1/ 3

$$
FLZ011-016>038-118-127-128-134-139-239-300600-
NORTH FLORIDA

CITY           SKY/WX    TMP DP  RH WIND       PRES   REMARKS
MARIANNA       CLEAR     52  49  89 S7        30.18F
TALLAHASSEE    CLEAR     44  38  79 CALM      30.21F
PERRY          CLEAR     44  44  99 CALM      30.23S FOG
CROSS CITY       N/A     44  42  93 CALM      30.22F
LAKE CITY      FAIR      45  43  93 W7        30.21S WCI  41
GAINESVILLE    PTCLDY    49  41  74 SW6       30.22F
MAYPORT NAS    PTCLDY    49  47  93 S7        30.19F
JACKSONVILLE   MOCLDY    49  45  86 W5        30.19S
JAX NAS        MOCLDY    57  43  59 SW9       30.20F
JAX CRAIG      PTCLDY    51  47  86 SW6       30.19F
JAX CECIL      PTCLDY    46  41  81 SW5       30.20F WCI  44
FERNANDINA BEA FAIR      54  52  94 CALM      30.18S
ST AUGUSTINE   PTCLDY    53  50  89 SW7       30.21F

STATION/POSITION SKY/WX   TEMP    WIND        PRES    WAVE   SWELL
                          AIR SEA DIR/SP/G            HT/PER HT/PER
                          (F)     (DEG/KT/KT) (MB)    (FT/S) (FT/S)
SHELL POINT                56     200/  8/ 10   N/A
KEATON BEACH               56     210/  6/  7 1023.4F
CEDAR KEY                  56     280/  4/  5 1024.4F
FERNANDINA                 54 55  210/  9/ 11 1021.6F
30.7N   81.3W                 56                N/A     3/11   2/11
MAYPORT                    53 57  210/  6/  7 1022.1F
31.4N   80.9W              55 54  220/ 10/ 12 1021.8S   3/ 9   2/ 9
ST AUGUSTINE               53     220/  7/  8 1023.3F

$$
FLZ040-043>046-052-053-057-058-063-144-300600-
INTERIOR CENTRAL FLORIDA

CITY           SKY/WX    TMP DP  RH WIND       PRES   REMARKS
OCALA          CLEAR     43  39  87 CALM      30.23S
THE VILLAGES     N/A     48  46  93 CALM      30.13F
LEESBURG       CLEAR     50  46  86 CALM      30.24F
SANFORD        CLEAR     55  48  77 W6        30.23S
ORLANDO EXEC   CLEAR     54  48  80 CALM      30.23S
ORLANDO INTL   CLEAR     54  50  86 W6        30.24S
WINTER HAVEN   CLEAR     53  44  71 CALM      30.25F
LAKELAND       CLEAR     48  45  87 CALM      30.25S
BARTOW         FAIR      50  45  81 CALM      30.25F
OKEECHOBEE     CLEAR     46  45  93 CALM      30.23F

$$
FLZ041-047-054-059-064-141-147-300600-
EAST CENTRAL FLORIDA

CITY           SKY/WX    TMP DP  RH WIND       PRES   REMARKS
DAYTONA BEACH  PTCLDY    49  47  93 SW5       30.22F
DELAND         CLEAR    N/A N/A N/A SW3       30.23F
JFK SPACE CTR  CLEAR     49  46  90 S3        30.21F
CAPE CANAVERAL CLEAR     46  44  91 E1        30.21F
PATRICK AFB    CLEAR     55  51  87 CALM      30.22F
MELBOURNE      CLEAR     51  47  86 CALM      30.23F
VERO BEACH     CLEAR     48  45  89 CALM      30.23F
FT PIERCE      CLEAR     46  43  89 CALM      30.22F
STUART         PTCLDY    55  50  82 CALM      30.23F

STATION/POSITION SKY/WX   TEMP    WIND        PRES    WAVE   SWELL
                          AIR SEA DIR/SP/G            HT/PER HT/PER
                          (F)     (DEG/KT/KT) (MB)    (FT/S) (FT/S)
28.5N   80.2W              65 69  290/  4/  4 1023.7F
28.9N   78.5W              66 75  190/  6/  8 1023.4F   6/11   5/11
TRIDENT PIER               55 63   CALM  /  1 1023.0F
28.4N   80.5W                 62                N/A     3/10   2/11
27.6N   80.2W                 65                N/A     3/11   2/11

$$
FLZ050-056-061-142-242-148-248-149-249-151-251-155-255-
160-260-300600-
WEST CENTRAL FLORIDA

CITY           SKY/WX    TMP DP  RH WIND       PRES   REMARKS
CRYSTAL RIVER  FAIR      43  41  93 CALM      30.24S
INVERNESS      FAIR      43  43 100 CALM      30.24F
BROOKSVILLE    CLEAR     44  42  93 CALM      30.25F
ZEPHYRHILLS    FAIR      43  41  93 CALM      30.25S
CLEARWATER     CLEAR     52  50  93 CALM      30.24S
TAMPA INTL     PTCLDY    54  48  80 CALM      30.25S
TAMPA EXEC     CLEAR     46  45  93 CALM      30.25S
PLANT CITY       N/A    N/A N/A N/A MISG        N/A
MACDILL AFB    CLEAR     49  47  92 NE2       30.24F
PETER O KNIGHT CLEAR     55  50  82 CALM      30.24S
ST PETERSBURG  CLEAR     58  53  84 N5        30.23S
SARASOTA       CLEAR     53  50  89 NE3       30.23S
VENICE         FAIR      54  50  87 NE6       30.24F

STATION/POSITION SKY/WX   TEMP    WIND        PRES    WAVE   SWELL
                          AIR SEA DIR/SP/G            HT/PER HT/PER
                          (F)     (DEG/KT/KT) (MB)    (FT/S) (FT/S)
CEDAR KEY                  56     280/  4/  5 1024.4F
28.5N   84.5W              65 67  240/  8/ 12 1024.0F   1/ 3
27.3N   84.3W                 72                N/A     2/ 4
CLEARWATER BEACH           60 61  330/  8/  9 1023.8S
MIDDLE TAMPA BAY           60      20/  5/  6 1024.3S
VENICE                     58 63   30/  9/ 11 1023.5F

$$
FLZ066-069-070-075>078-162-262-165-265-300600-
SOUTHWEST FLORIDA AND KEYS

CITY           SKY/WX    TMP DP  RH WIND       PRES   REMARKS
PUNTA GORDA    CLEAR     53  47  79 CALM      30.25F
FT MYERS       CLEAR     55  50  83 N3        30.22F
SOUTHWEST INTL CLEAR     55  49  80 CALM      30.23F
NAPLES         CLEAR     56  52  86 CALM      30.22F
MARCO ISLAND   MOCLDY    55  50  82 NE5       30.22F
IMMOKALEE      CLEAR     48  48 100 CALM      30.24F
MARATHON       MOCLDY    65  58  78 N7        30.20F
KEY WEST NAS   MOCLDY    65  55  70 NE7       30.21F
KEY WEST INTL  MOCLDY    65  55  70 N7        30.22F

STATION/POSITION SKY/WX   TEMP    WIND        PRES    WAVE   SWELL
                          AIR SEA DIR/SP/G            HT/PER HT/PER
                          (F)     (DEG/KT/KT) (MB)    (FT/S) (FT/S)
VENICE                     58 63   30/  9/ 11 1023.5F
NAPLES                     60 73  100/  4/  5 1024.0F
26.0N   85.6W              68 72   80/  6/ 10 1023.7F   3/ 6   2/ 6
DRY TORTUGAS               69      90/ 15/ 17 1023.3R
NW FL BAY                  64      40/  7/  8 1023.8S
SAND KEY                   68      30/ 17/ 19 1022.9F
SOMBRERO KEY               66      30/ 13/ 15 1023.1F
LONG KEY                   65 65   30/ 12/ 14 1023.9S
MOLASSES REEF              69 75   80/  9/ 11 1022.6F

$$
FLZ067-068-071>074-168-172>174-300600-
SOUTHEAST FLORIDA

CITY           SKY/WX    TMP DP  RH WIND       PRES   REMARKS
W PALM BEACH   MOCLDY    60  51  72 N5        30.21F
FT LAUDER-EXEC CLOUDY    62  52  69 CALM      30.21F
FT LAUDERDALE  MOCLDY    61  52  72 N6        30.20F
POMPANO BEACH  MOCLDY    64  52  64 NW3       30.21F
PEMBROKE PINES CLOUDY    63  52  67 NW5       30.22F
OPA LOCKA      CLOUDY    64  51  62 N5        30.22F
MIAMI          PTCLDY    63  52  67 N3        30.21F
WEST KENDALL   MOCLDY    59  53  80 W3        30.22F
HOMESTEAD      PTCLDY    56  52  88 W2        30.21F

STATION/POSITION SKY/WX   TEMP    WIND        PRES    WAVE   SWELL
                          AIR SEA DIR/SP/G            HT/PER HT/PER
                          (F)     (DEG/KT/KT) (MB)    (FT/S) (FT/S)
PORT EVERGLADES            69      60/  6/  9 1022.6
VIRGINIA KEY               68 66   90/  5/  6 1023.4F
LAKE WORTH                 68 74  100/  6/  7 1022.7F
SETTLEMENT POINT           64      90/  7/  8 1023.9F

$$



USA.gov is the U.S. government's official web portal to all federal, state and local government web resources and services.